WXM80 ListenWXM80 Stop

You find our weather info also at:

UK Metoffice

WeatherCloud

Weather Underground

Northeastern Weather Network

AWEKAS

Citizen Weather Observer Program (CWOP)

HAMweather, WeatherForYou, PWS Weather


Weather Underground History page Text

Daily Summary for January 18, 2017 Units:  English    Metric   Both
« Previous Day
Next Day »
Daily Weekly Monthly Yearly Custom
  High: Low: Average:
Temperature: 40.4 °F 38.5 °F 39.6 °F
Dew Point: 39.7 °F 37.2 °F 38.6 °F
Humidity: 98 % 94 % 96 %
Wind Speed: 11.0 mph 0.0 mph 4 mph
Wind Gust: 16.1 mph - -
Wind:- - East
Pressure: 30.02 in 29.83 in -
Precipitation: 0.00 in    
Historical Graphs
 
 
Tabular Data for January 18, 2017
Time Temperature Dew Point Pressure Wind Wind Speed Wind Gust Humidity Rainfall Rate (Hourly)
00:04 38.5 °F 37.7 °F 29.93 in ENE 7.0 mph 12.0 mph 97 % 0.00 in
00:09 38.5 °F 37.7 °F 29.93 in ENE 8.0 mph 12.7 mph 97 % 0.00 in
00:14 38.5 °F 37.7 °F 29.93 in ENE 8.0 mph 12.0 mph 97 % 0.00 in
00:19 38.6 °F 37.8 °F 29.93 in NE 6.2 mph 10.4 mph 97 % 0.00 in
00:24 38.6 °F 37.8 °F 29.93 in ENE 6.0 mph 13.0 mph 97 % 0.00 in
00:29 38.6 °F 37.8 °F 29.93 in ENE 6.0 mph 11.0 mph 97 % 0.00 in
00:34 38.6 °F 37.8 °F 29.92 in NE 9.0 mph 11.5 mph 97 % 0.01 in
00:39 38.7 °F 37.9 °F 29.92 in ENE 6.5 mph 12.7 mph 97 % 0.01 in
00:44 38.7 °F 37.9 °F 29.91 in ENE 8.0 mph 13.0 mph 97 % 0.00 in
00:49 38.7 °F 37.9 °F 29.91 in ENE 10.0 mph 14.0 mph 97 % 0.01 in
00:54 38.8 °F 38.0 °F 29.91 in ENE 8.0 mph 12.0 mph 97 % 0.00 in
00:59 38.7 °F 37.9 °F 29.90 in ENE 9.8 mph 13.8 mph 97 % 0.03 in
01:04 38.8 °F 38.0 °F 29.90 in ENE 9.0 mph 16.0 mph 97 % 0.00 in
01:09 38.8 °F 38.0 °F 29.90 in ENE 9.0 mph 15.0 mph 97 % 0.00 in
01:14 38.9 °F 38.1 °F 29.90 in ENE 7.3 mph 13.8 mph 97 % 0.03 in
01:19 38.9 °F 38.1 °F 29.89 in ENE 7.9 mph 11.0 mph 97 % 0.03 in
01:24 38.9 °F 38.1 °F 29.89 in ENE 8.0 mph 13.0 mph 97 % 0.00 in
01:29 39.0 °F 38.2 °F 29.89 in ENE 9.0 mph 15.0 mph 97 % 0.00 in
01:34 39.1 °F 38.3 °F 29.89 in ENE 9.0 mph 14.0 mph 97 % 0.00 in
01:39 39.1 °F 38.3 °F 29.89 in ENE 6.0 mph 10.0 mph 97 % 0.00 in
01:44 39.2 °F 38.7 °F 29.89 in ENE 9.0 mph 14.0 mph 98 % 0.00 in
01:49 39.4 °F 38.9 °F 29.90 in ENE 9.0 mph 15.0 mph 98 % 0.00 in
01:54 39.5 °F 38.7 °F 29.90 in ENE 9.0 mph 13.0 mph 97 % 0.00 in
01:59 39.5 °F 38.7 °F 29.89 in ENE 7.8 mph 12.7 mph 97 % 0.00 in
02:04 39.5 °F 38.7 °F 29.89 in ENE 8.7 mph 13.0 mph 97 % 0.00 in
02:09 39.5 °F 38.7 °F 29.89 in ENE 9.3 mph 13.8 mph 97 % 0.00 in
02:14 39.5 °F 38.7 °F 29.89 in NE 6.7 mph 9.2 mph 97 % 0.00 in
02:19 39.4 °F 38.9 °F 29.88 in ENE 7.9 mph 11.5 mph 98 % 0.00 in
02:24 39.4 °F 38.9 °F 29.87 in ENE 6.4 mph 8.1 mph 98 % 0.00 in
02:29 39.4 °F 38.9 °F 29.86 in ESE 7.8 mph 11.5 mph 98 % 0.00 in
02:34 39.4 °F 38.9 °F 29.86 in East 6.1 mph 9.2 mph 98 % 0.00 in
02:39 39.4 °F 38.9 °F 29.86 in East 7.5 mph 10.4 mph 98 % 0.00 in
02:44 39.5 °F 38.7 °F 29.88 in East 6.0 mph 9.2 mph 97 % 0.00 in
02:49 39.5 °F 38.7 °F 29.88 in ENE 6.3 mph 8.1 mph 97 % 0.00 in
02:55 39.6 °F 39.1 °F 29.88 in ENE 6.3 mph 9.2 mph 98 % 0.00 in
03:00 39.7 °F 39.2 °F 29.87 in ENE 7.3 mph 9.2 mph 98 % 0.00 in
03:05 39.7 °F 39.2 °F 29.87 in ENE 6.5 mph 9.2 mph 98 % 0.00 in
03:10 39.8 °F 39.3 °F 29.87 in NE 8.0 mph 11.5 mph 98 % 0.00 in
03:15 39.8 °F 39.3 °F 29.86 in ENE 5.8 mph 8.1 mph 98 % 0.01 in
03:20 39.8 °F 39.3 °F 29.86 in ENE 5.2 mph 6.9 mph 98 % 0.01 in
03:25 39.8 °F 39.3 °F 29.86 in ENE 5.8 mph 8.1 mph 98 % 0.02 in
03:30 39.8 °F 39.3 °F 29.85 in East 8.7 mph 12.7 mph 98 % 0.02 in
03:35 39.7 °F 39.2 °F 29.86 in NE 5.4 mph 9.2 mph 98 % 0.02 in
03:40 39.5 °F 39.0 °F 29.86 in NE 8.4 mph 11.5 mph 98 % 0.02 in
03:45 39.4 °F 38.9 °F 29.85 in NE 6.9 mph 11.5 mph 98 % 0.02 in
03:50 39.4 °F 38.9 °F 29.86 in NE 7.3 mph 11.5 mph 98 % 0.02 in
03:55 39.3 °F 38.8 °F 29.86 in NE 4.0 mph 9.2 mph 98 % 0.02 in
04:00 39.3 °F 38.5 °F 29.87 in ENE 6.7 mph 11.5 mph 97 % 0.02 in
04:05 39.3 °F 38.5 °F 29.87 in NNE 5.0 mph 8.1 mph 97 % 0.02 in
04:10 39.3 °F 38.8 °F 29.87 in NNE 5.6 mph 8.1 mph 98 % 0.02 in
04:15 39.3 °F 38.5 °F 29.86 in NE 9.9 mph 12.0 mph 97 % 0.01 in
04:20 39.3 °F 38.8 °F 29.87 in ENE 7.2 mph 9.2 mph 98 % 0.01 in
04:25 39.3 °F 38.8 °F 29.87 in ENE 6.9 mph 10.4 mph 98 % 0.00 in
04:31 39.3 °F 38.8 °F 29.88 in NE 4.5 mph 8.1 mph 98 % 0.01 in
04:36 39.3 °F 38.8 °F 29.88 in ENE 4.7 mph 10.4 mph 98 % 0.02 in
04:41 39.4 °F 38.9 °F 29.87 in NE 9.0 mph 11.5 mph 98 % 0.02 in
04:46 39.4 °F 38.9 °F 29.87 in ENE 6.4 mph 9.0 mph 98 % 0.03 in
04:52 39.4 °F 38.9 °F 29.87 in ENE 5.4 mph 9.2 mph 98 % 0.03 in
04:57 39.4 °F 38.9 °F 29.86 in ENE 6.1 mph 10.4 mph 98 % 0.03 in
05:02 39.5 °F 39.0 °F 29.85 in East 5.7 mph 9.2 mph 98 % 0.03 in
05:07 39.5 °F 39.0 °F 29.85 in ENE 7.7 mph 8.1 mph 98 % 0.04 in
05:12 39.5 °F 39.0 °F 29.84 in East 7.3 mph 9.2 mph 98 % 0.04 in
05:17 39.6 °F 39.1 °F 29.83 in ENE 7.6 mph 10.4 mph 98 % 0.04 in
05:22 39.7 °F 39.2 °F 29.83 in ENE 8.8 mph 11.0 mph 98 % 0.04 in
05:27 39.8 °F 39.3 °F 29.84 in NE 9.7 mph 13.8 mph 98 % 0.04 in
05:32 39.9 °F 39.4 °F 29.84 in East 8.0 mph 11.5 mph 98 % 0.03 in
05:37 40.0 °F 39.5 °F 29.84 in ENE 8.8 mph 11.5 mph 98 % 0.02 in
05:42 40.1 °F 39.6 °F 29.84 in ENE 11.0 mph 15.0 mph 98 % 0.02 in
05:47 40.1 °F 39.6 °F 29.85 in ENE 10.9 mph 15.0 mph 98 % 0.01 in
05:52 40.1 °F 39.6 °F 29.85 in ENE 9.3 mph 16.1 mph 98 % 0.01 in
05:58 40.1 °F 39.6 °F 29.86 in ENE 8.7 mph 11.5 mph 98 % 0.01 in
06:03 40.1 °F 39.6 °F 29.86 in NE 9.8 mph 11.5 mph 98 % 0.01 in
06:08 40.2 °F 39.7 °F 29.87 in NNE 10.2 mph 16.0 mph 98 % 0.00 in
06:13 40.2 °F 39.7 °F 29.88 in NE 7.0 mph 11.5 mph 98 % 0.00 in
06:18 40.1 °F 39.6 °F 29.88 in ENE 7.7 mph 9.2 mph 98 % 0.00 in
06:23 40.0 °F 39.5 °F 29.88 in ENE 10.3 mph 15.0 mph 98 % 0.00 in
06:28 40.0 °F 39.5 °F 29.88 in East 8.2 mph 11.5 mph 98 % 0.00 in
06:33 40.0 °F 39.5 °F 29.87 in ENE 10.3 mph 13.8 mph 98 % 0.00 in
06:38 39.9 °F 39.4 °F 29.87 in ENE 9.3 mph 15.0 mph 98 % 0.00 in
06:43 39.8 °F 39.3 °F 29.87 in East 6.9 mph 10.4 mph 98 % 0.00 in
06:48 39.8 °F 39.3 °F 29.87 in ENE 10.3 mph 16.1 mph 98 % 0.00 in
06:53 39.8 °F 39.3 °F 29.87 in ENE 8.4 mph 11.5 mph 98 % 0.00 in
06:58 39.7 °F 38.9 °F 29.87 in NE 7.5 mph 11.5 mph 97 % 0.00 in
07:03 39.7 °F 38.9 °F 29.87 in ENE 10.1 mph 11.5 mph 97 % 0.00 in
07:08 39.7 °F 38.9 °F 29.87 in ENE 9.5 mph 11.5 mph 97 % 0.00 in
07:14 39.6 °F 38.8 °F 29.87 in ENE 6.1 mph 9.2 mph 97 % 0.00 in
07:19 39.6 °F 38.8 °F 29.87 in NE 8.2 mph 11.5 mph 97 % 0.00 in
07:24 39.6 °F 38.8 °F 29.88 in ENE 5.6 mph 8.0 mph 97 % 0.00 in
07:29 39.6 °F 38.8 °F 29.88 in NE 5.0 mph 9.0 mph 97 % 0.00 in
07:34 39.5 °F 38.7 °F 29.89 in NE 3.0 mph 7.0 mph 97 % 0.00 in
07:39 39.5 °F 38.7 °F 29.89 in North 3.3 mph 9.2 mph 97 % 0.00 in
07:44 39.5 °F 38.7 °F 29.89 in NE 3.0 mph 10.0 mph 97 % 0.00 in
07:49 39.5 °F 38.7 °F 29.89 in NNE 5.0 mph 7.0 mph 97 % 0.00 in
07:54 39.5 °F 38.7 °F 29.89 in NE 3.0 mph 5.0 mph 97 % 0.00 in
07:59 39.5 °F 38.7 °F 29.89 in NNW 2.9 mph 4.6 mph 97 % 0.00 in
08:04 39.4 °F 38.6 °F 29.90 in NNE 3.0 mph 9.0 mph 97 % 0.00 in
08:09 39.4 °F 38.6 °F 29.90 in NNE 5.0 mph 6.0 mph 97 % 0.00 in
08:14 39.4 °F 38.6 °F 29.90 in NNE 3.0 mph 8.0 mph 97 % 0.00 in
08:19 39.3 °F 38.6 °F 29.89 in NNE 5.0 mph 7.0 mph 97 % 0.00 in
08:24 39.3 °F 38.5 °F 29.90 in NNE 3.8 mph 5.0 mph 97 % 0.00 in
08:29 39.4 °F 38.6 °F 29.90 in NE 5.0 mph 9.0 mph 97 % 0.00 in
08:34 39.4 °F 38.6 °F 29.90 in NNE 5.0 mph 7.0 mph 97 % 0.00 in
08:39 39.4 °F 38.6 °F 29.90 in NNE 2.0 mph 7.0 mph 97 % 0.00 in
08:44 39.4 °F 38.6 °F 29.90 in NNE 3.0 mph 8.0 mph 97 % 0.00 in
08:49 39.4 °F 38.6 °F 29.90 in NNE 3.0 mph 6.0 mph 97 % 0.00 in
08:54 39.4 °F 38.6 °F 29.90 in NNE 5.0 mph 9.0 mph 97 % 0.00 in
08:59 39.4 °F 38.6 °F 29.89 in NNE 4.0 mph 5.8 mph 97 % 0.00 in
09:04 39.4 °F 38.6 °F 29.89 in NNE 4.9 mph 10.4 mph 97 % 0.00 in
09:09 39.4 °F 38.6 °F 29.90 in North 7.8 mph 12.0 mph 97 % 0.00 in
09:14 39.3 °F 38.5 °F 29.90 in NE 4.3 mph 8.1 mph 97 % 0.00 in
09:19 39.3 °F 38.5 °F 29.90 in NNE 4.5 mph 6.9 mph 97 % 0.00 in
09:24 39.2 °F 38.4 °F 29.91 in NNE 4.3 mph 6.9 mph 97 % 0.00 in
09:29 39.2 °F 38.4 °F 29.91 in North 3.6 mph 5.0 mph 97 % 0.00 in
09:34 39.2 °F 38.4 °F 29.91 in NNE 4.4 mph 6.0 mph 97 % 0.00 in
09:39 39.2 °F 38.4 °F 29.91 in NNE 4.9 mph 8.1 mph 97 % 0.00 in
09:44 39.2 °F 38.4 °F 29.91 in NNE 5.9 mph 10.0 mph 97 % 0.00 in
09:49 39.2 °F 38.4 °F 29.91 in NNE 5.3 mph 8.1 mph 97 % 0.00 in
09:54 39.2 °F 38.4 °F 29.91 in NE 4.4 mph 8.1 mph 97 % 0.00 in
09:59 39.1 °F 38.3 °F 29.91 in NNE 4.8 mph 10.4 mph 97 % 0.00 in
10:04 39.2 °F 38.4 °F 29.91 in NNE 4.7 mph 6.9 mph 97 % 0.00 in
10:10 39.2 °F 38.4 °F 29.91 in ENE 4.9 mph 6.9 mph 97 % 0.00 in
10:15 39.2 °F 38.4 °F 29.91 in ENE 5.5 mph 9.2 mph 97 % 0.00 in
10:20 39.2 °F 38.4 °F 29.91 in NE 2.5 mph 5.8 mph 97 % 0.00 in
10:25 39.2 °F 38.4 °F 29.91 in NE 3.8 mph 6.0 mph 97 % 0.00 in
10:32 39.2 °F 38.4 °F 29.90 in NNE 6.0 mph 10.4 mph 97 % 0.00 in
10:37 39.3 °F 38.5 °F 29.90 in NNE 4.0 mph 6.9 mph 97 % 0.00 in
10:42 39.3 °F 38.5 °F 29.90 in NNE 5.7 mph 10.4 mph 97 % 0.00 in
10:48 39.3 °F 38.5 °F 29.90 in NNE 3.8 mph 8.1 mph 97 % 0.00 in
10:53 39.4 °F 38.6 °F 29.90 in NNE 3.1 mph 5.8 mph 97 % 0.00 in
10:59 39.5 °F 38.7 °F 29.89 in NNE 6.8 mph 9.2 mph 97 % 0.00 in
11:04 39.5 °F 38.7 °F 29.89 in NNE 6.0 mph 10.0 mph 97 % 0.00 in
11:09 39.5 °F 38.7 °F 29.88 in NNE 3.5 mph 6.9 mph 97 % 0.00 in
11:14 39.6 °F 38.8 °F 29.88 in NNE 5.0 mph 8.1 mph 97 % 0.00 in
11:19 39.7 °F 38.9 °F 29.88 in NE 3.7 mph 6.9 mph 97 % 0.00 in
11:24 39.8 °F 39.0 °F 29.88 in North 3.9 mph 6.9 mph 97 % 0.00 in
11:29 39.8 °F 39.0 °F 29.88 in NNE 5.3 mph 6.9 mph 97 % 0.00 in
11:34 39.8 °F 39.0 °F 29.88 in NNE 4.7 mph 5.8 mph 97 % 0.00 in
11:39 39.7 °F 38.9 °F 29.88 in NNE 4.8 mph 6.9 mph 97 % 0.00 in
11:44 39.7 °F 38.9 °F 29.89 in NNE 4.6 mph 6.0 mph 97 % 0.00 in
11:49 39.7 °F 38.9 °F 29.88 in NNE 3.2 mph 5.0 mph 97 % 0.00 in
11:59 39.7 °F 38.9 °F 29.87 in North 3.2 mph 6.0 mph 97 % 0.00 in
12:05 39.7 °F 38.9 °F 29.87 in NNE 4.0 mph 5.8 mph 97 % 0.00 in
12:10 39.8 °F 39.0 °F 29.87 in NNE 3.1 mph 5.0 mph 97 % 0.00 in
12:15 39.8 °F 39.0 °F 29.87 in NE 5.4 mph 6.0 mph 97 % 0.00 in
12:20 39.8 °F 39.0 °F 29.87 in NE 4.6 mph 6.9 mph 97 % 0.00 in
12:25 39.8 °F 39.0 °F 29.87 in NE 2.4 mph 4.6 mph 97 % 0.00 in
12:30 39.9 °F 39.1 °F 29.87 in NNE 4.5 mph 6.0 mph 97 % 0.00 in
12:35 40.0 °F 39.2 °F 29.87 in NNE 5.4 mph 8.1 mph 97 % 0.00 in
12:40 40.0 °F 39.2 °F 29.88 in NNE 3.0 mph 5.0 mph 97 % 0.00 in
12:45 40.1 °F 39.3 °F 29.88 in NNE 3.5 mph 5.8 mph 97 % 0.00 in
12:50 40.1 °F 39.3 °F 29.88 in NNE 4.1 mph 5.8 mph 97 % 0.00 in
12:55 40.2 °F 39.4 °F 29.88 in North 5.0 mph 6.9 mph 97 % 0.00 in
13:00 40.2 °F 39.4 °F 29.88 in North 5.0 mph 8.1 mph 97 % 0.00 in
13:05 40.2 °F 39.2 °F 29.89 in NNE 4.5 mph 5.8 mph 96 % 0.00 in
13:10 40.2 °F 39.2 °F 29.89 in NNW 4.2 mph 5.8 mph 96 % 0.00 in
13:15 40.2 °F 39.2 °F 29.89 in NNE 2.4 mph 3.5 mph 96 % 0.00 in
13:20 40.3 °F 39.3 °F 29.89 in North 2.8 mph 4.6 mph 96 % 0.00 in
13:25 40.3 °F 39.3 °F 29.89 in North 1.7 mph 3.5 mph 96 % 0.00 in
13:31 40.3 °F 39.3 °F 29.89 in North 2.1 mph 5.8 mph 96 % 0.00 in
13:36 40.4 °F 39.4 °F 29.89 in NNW 1.9 mph 5.8 mph 96 % 0.00 in
13:41 40.4 °F 39.1 °F 29.90 in North 3.9 mph 5.0 mph 95 % 0.00 in
13:46 40.4 °F 39.1 °F 29.90 in North 5.9 mph 7.0 mph 95 % 0.00 in
13:51 40.4 °F 39.1 °F 29.90 in NNW 5.2 mph 6.9 mph 95 % 0.00 in
13:56 40.3 °F 39.0 °F 29.91 in North 5.1 mph 9.2 mph 95 % 0.00 in
14:01 40.3 °F 39.0 °F 29.91 in North 6.9 mph 10.4 mph 95 % 0.00 in
14:06 40.2 °F 38.9 °F 29.91 in NNE 4.8 mph 6.9 mph 95 % 0.00 in
14:11 40.2 °F 38.9 °F 29.91 in NE 4.6 mph 6.9 mph 95 % 0.00 in
14:16 40.2 °F 38.9 °F 29.92 in North 3.4 mph 5.0 mph 95 % 0.00 in
14:21 40.2 °F 38.9 °F 29.92 in NNE 4.3 mph 5.8 mph 95 % 0.00 in
14:26 40.2 °F 38.9 °F 29.92 in NE 2.8 mph 5.8 mph 95 % 0.00 in
14:31 40.2 °F 38.9 °F 29.92 in NNE 3.1 mph 5.0 mph 95 % 0.00 in
14:36 40.2 °F 38.9 °F 29.92 in NNE 3.1 mph 4.6 mph 95 % 0.00 in
14:41 40.2 °F 38.9 °F 29.92 in North 3.3 mph 5.0 mph 95 % 0.00 in
14:43 40.2 °F 38.9 °F 29.92 in NNW 4.8 mph 5.8 mph 95 % 0.00 in
14:48 40.2 °F 38.9 °F 29.92 in NNE 3.1 mph 5.8 mph 95 % 0.00 in
14:53 40.2 °F 38.9 °F 29.93 in North 3.5 mph 5.8 mph 95 % 0.00 in
14:58 40.2 °F 38.9 °F 29.93 in NNE 4.4 mph 6.9 mph 95 % 0.00 in
15:03 40.1 °F 38.8 °F 29.93 in NNE 2.6 mph 5.8 mph 95 % 0.00 in
15:08 40.1 °F 38.8 °F 29.92 in NNE 3.9 mph 6.0 mph 95 % 0.00 in
15:13 40.0 °F 38.7 °F 29.92 in North 5.2 mph 8.1 mph 95 % 0.00 in
15:18 40.0 °F 38.7 °F 29.92 in North 4.8 mph 6.9 mph 95 % 0.00 in
15:23 40.0 °F 38.7 °F 29.92 in NNE 4.3 mph 5.0 mph 95 % 0.00 in
15:28 40.0 °F 38.7 °F 29.92 in North 3.4 mph 6.9 mph 95 % 0.00 in
15:33 40.0 °F 38.7 °F 29.92 in NNE 4.3 mph 5.8 mph 95 % 0.00 in
15:38 40.0 °F 38.7 °F 29.92 in NNE 3.9 mph 5.8 mph 95 % 0.00 in
15:44 40.0 °F 38.7 °F 29.93 in NNE 4.1 mph 5.8 mph 95 % 0.00 in
15:49 40.0 °F 38.7 °F 29.92 in NE 0.9 mph 2.3 mph 95 % 0.00 in
15:54 40.0 °F 38.7 °F 29.92 in NNE 1.5 mph 2.3 mph 95 % 0.00 in
15:59 40.0 °F 38.7 °F 29.92 in NNE 1.0 mph 4.6 mph 95 % 0.00 in
16:04 40.1 °F 38.8 °F 29.92 in NNE 1.0 mph 5.0 mph 95 % 0.00 in
16:09 40.1 °F 38.8 °F 29.93 in NE 2.0 mph 3.0 mph 95 % 0.00 in
16:14 40.1 °F 38.8 °F 29.93 in NNE 1.9 mph 3.5 mph 95 % 0.00 in
16:19 40.1 °F 38.8 °F 29.93 in NNE 1.0 mph 4.0 mph 95 % 0.00 in
16:24 40.2 °F 38.9 °F 29.94 in NNE 1.0 mph 3.0 mph 95 % 0.00 in
16:29 40.2 °F 38.9 °F 29.94 in NNE 2.0 mph 5.0 mph 95 % 0.00 in
16:34 40.1 °F 38.8 °F 29.94 in NNE 1.0 mph 5.0 mph 95 % 0.00 in
16:39 40.1 °F 38.8 °F 29.95 in NNE 3.0 mph 4.0 mph 95 % 0.00 in
16:44 40.1 °F 38.8 °F 29.95 in NNE 1.0 mph 4.0 mph 95 % 0.00 in
16:49 40.1 °F 38.5 °F 29.96 in Calm   3.0 mph 94 % 0.00 in
16:54 40.1 °F 38.5 °F 29.96 in Calm   2.0 mph 94 % 0.00 in
16:59 40.1 °F 38.5 °F 29.96 in North 0.4 mph 1.2 mph 94 % 0.00 in
17:04 40.1 °F 38.5 °F 29.96 in Calm     94 % 0.00 in
17:09 40.1 °F 38.5 °F 29.97 in Calm     94 % 0.00 in
17:14 40.1 °F 38.5 °F 29.97 in Calm     94 % 0.00 in
17:19 40.1 °F 38.5 °F 29.96 in Calm     94 % 0.00 in
17:24 40.0 °F 38.4 °F 29.97 in Calm     94 % 0.00 in
17:29 40.0 °F 38.4 °F 29.97 in WNW 1.0 mph 2.3 mph 94 % 0.00 in
17:34 40.0 °F 38.4 °F 29.98 in Calm     94 % 0.00 in
17:39 40.0 °F 38.4 °F 29.98 in NW 1.3 mph 3.5 mph 94 % 0.00 in
17:44 40.0 °F 38.4 °F 29.98 in NNW 0.6 mph 3.5 mph 94 % 0.00 in
17:49 40.0 °F 38.4 °F 29.98 in North 1.0 mph 3.5 mph 94 % 0.00 in
17:55 40.0 °F 38.4 °F 29.99 in North 0.3 mph 1.2 mph 94 % 0.00 in
18:00 40.0 °F 38.4 °F 29.99 in Calm     94 % 0.00 in
18:05 40.0 °F 38.4 °F 29.99 in Calm     94 % 0.00 in
18:10 40.0 °F 38.4 °F 29.99 in North 0.2 mph 2.0 mph 94 % 0.00 in
18:15 40.0 °F 38.4 °F 30.00 in NW 0.2 mph 2.3 mph 94 % 0.00 in
18:20 40.0 °F 38.4 °F 30.00 in NW 0.4 mph 2.3 mph 94 % 0.00 in
18:25 40.0 °F 38.4 °F 30.00 in North 0.2 mph 2.3 mph 94 % 0.00 in
18:30 40.0 °F 38.4 °F 30.00 in North 0.3 mph 2.3 mph 94 % 0.00 in
18:35 40.0 °F 38.4 °F 30.00 in North 0.6 mph 2.3 mph 94 % 0.00 in
18:40 40.0 °F 38.4 °F 30.00 in Calm     94 % 0.00 in
18:45 40.0 °F 38.4 °F 30.00 in NNW 1.5 mph 3.5 mph 94 % 0.00 in
18:47 40.0 °F 38.4 °F 30.00 in Calm   2.3 mph 94 % 0.00 in
18:52 40.0 °F 38.4 °F 30.00 in Calm     94 % 0.00 in
18:57 40.0 °F 38.4 °F 30.00 in Calm     94 % 0.00 in
19:02 40.0 °F 38.4 °F 30.00 in Calm     94 % 0.00 in
19:07 40.0 °F 38.4 °F 30.00 in Calm   1.0 mph 94 % 0.00 in
19:12 40.0 °F 38.4 °F 30.01 in NNW 0.6 mph   94 % 0.00 in
19:17 40.0 °F 38.4 °F 30.01 in Calm   1.2 mph 94 % 0.00 in
19:22 40.0 °F 38.4 °F 30.01 in Calm   1.2 mph 94 % 0.00 in
19:27 40.0 °F 38.4 °F 30.02 in Calm   1.2 mph 94 % 0.00 in
19:32 40.0 °F 38.4 °F 30.01 in Calm     94 % 0.00 in
19:37 39.9 °F 38.3 °F 30.01 in Calm     94 % 0.00 in
19:42 39.9 °F 38.3 °F 30.01 in Calm   1.2 mph 94 % 0.00 in
19:47 39.9 °F 38.3 °F 30.01 in Calm     94 % 0.00 in
19:52 39.8 °F 38.2 °F 30.01 in Calm     94 % 0.00 in
19:57 39.8 °F 38.2 °F 30.01 in Calm     94 % 0.00 in
20:02 39.8 °F 38.2 °F 30.01 in Calm     94 % 0.00 in
20:07 39.8 °F 38.2 °F 30.00 in Calm     94 % 0.00 in
20:13 39.8 °F 38.2 °F 30.00 in Calm     94 % 0.00 in
20:18 39.8 °F 38.2 °F 30.00 in Calm     94 % 0.00 in
20:23 39.7 °F 38.1 °F 30.00 in Calm     94 % 0.00 in
20:28 39.8 °F 38.2 °F 30.00 in Calm     94 % 0.00 in
20:33 39.8 °F 38.2 °F 29.99 in Calm     94 % 0.00 in
20:38 39.8 °F 38.2 °F 29.99 in Calm     94 % 0.00 in
20:43 39.7 °F 38.4 °F 29.99 in Calm     95 % 0.00 in
20:48 39.7 °F 38.4 °F 29.98 in Calm     95 % 0.00 in
20:53 39.7 °F 38.4 °F 29.98 in Calm     95 % 0.00 in
20:58 39.7 °F 38.4 °F 29.98 in Calm     95 % 0.00 in
21:03 39.6 °F 38.3 °F 29.99 in Calm     95 % 0.00 in
21:08 39.6 °F 38.3 °F 29.99 in Calm     95 % 0.00 in
21:13 39.5 °F 38.2 °F 30.00 in NNW 0.4 mph 2.3 mph 95 % 0.00 in
21:18 39.5 °F 38.2 °F 30.00 in NNW 0.4 mph 2.3 mph 95 % 0.00 in
21:23 39.5 °F 38.2 °F 30.00 in NNW 0.8 mph 3.5 mph 95 % 0.00 in
21:28 39.4 °F 38.1 °F 29.99 in Calm   2.0 mph 95 % 0.00 in
21:33 39.4 °F 38.1 °F 29.98 in NNW 1.1 mph 2.3 mph 95 % 0.00 in
21:39 39.3 °F 38.0 °F 29.98 in NNW 0.8 mph 2.3 mph 95 % 0.00 in
21:44 39.3 °F 38.0 °F 29.98 in NNE 2.9 mph 3.5 mph 95 % 0.00 in
21:49 39.3 °F 38.0 °F 29.98 in NNE 2.0 mph 3.5 mph 95 % 0.00 in
21:54 39.3 °F 38.0 °F 29.98 in NNE 1.1 mph 3.5 mph 95 % 0.00 in
21:59 39.2 °F 37.9 °F 29.98 in NE 1.0 mph 3.5 mph 95 % 0.00 in
22:04 39.2 °F 37.9 °F 29.99 in NNE 1.0 mph 5.0 mph 95 % 0.00 in
22:09 39.2 °F 37.9 °F 29.99 in NNE 1.0 mph 3.0 mph 95 % 0.00 in
22:14 39.2 °F 37.9 °F 29.99 in North 2.0 mph 3.0 mph 95 % 0.00 in
22:19 39.1 °F 37.8 °F 30.00 in North 1.0 mph 3.0 mph 95 % 0.00 in
22:24 39.2 °F 37.9 °F 30.00 in NNW 0.3 mph 2.3 mph 95 % 0.00 in
22:29 39.2 °F 37.9 °F 30.00 in NNW 1.0 mph 2.0 mph 95 % 0.00 in
22:34 39.2 °F 37.9 °F 30.00 in Calm     95 % 0.00 in
22:39 39.2 °F 37.8 °F 30.00 in Calm   2.0 mph 95 % 0.00 in
22:44 39.1 °F 37.8 °F 30.00 in Calm   3.0 mph 95 % 0.00 in
22:49 39.2 °F 37.9 °F 30.00 in North 0.2 mph 1.2 mph 95 % 0.00 in
22:54 39.1 °F 37.8 °F 30.00 in Calm   2.0 mph 95 % 0.00 in
22:59 39.2 °F 37.9 °F 30.00 in Calm   1.2 mph 95 % 0.00 in
23:04 39.1 °F 37.8 °F 30.00 in Calm   2.0 mph 95 % 0.00 in
23:09 39.1 °F 37.8 °F 30.00 in Calm   3.0 mph 95 % 0.00 in
23:14 39.1 °F 37.8 °F 29.99 in North 1.0 mph 5.0 mph 95 % 0.00 in
23:19 39.0 °F 37.7 °F 29.99 in North 1.0 mph 4.0 mph 95 % 0.00 in
23:24 39.0 °F 37.7 °F 29.99 in Calm     95 % 0.00 in
23:29 38.9 °F 37.6 °F 29.98 in North 1.0 mph 3.0 mph 95 % 0.00 in
23:34 38.9 °F 37.3 °F 29.98 in Calm   1.2 mph 94 % 0.00 in
23:39 38.9 °F 37.3 °F 29.98 in Calm   2.0 mph 94 % 0.00 in
23:44 38.8 °F 37.2 °F 29.98 in North 1.0 mph 2.3 mph 94 % 0.00 in
23:49 38.8 °F 37.2 °F 29.98 in North 1.0 mph 3.0 mph 94 % 0.00 in
23:54 38.8 °F 37.2 °F 29.97 in Calm   3.0 mph 94 % 0.00 in
23:59 38.8 °F 37.2 °F 29.97 in Calm     94 % 0.00 in
Crab Meadow Weather
Compliments of Weather Underground - 3 mb

Script developed by  Jim McMurry - jmcmurry@mwt.net Adapted for the template by  Wim van der Kuil - Leuven-Template.eu

Recycling: Americans use 85,000,000 tons of paper a year; about 680 pounds per person.